9A3XK-13 Weather Reports


time (UTC)temp
C
wind
direction
speed
KPH
gust
KPH
rain 1hr
cm
rain 24hr
cm
rain mn
cm
humidity
%
barometer
mb
20260507080516 16 0.0 3.2 0.00 0.38 0.03 82 1013.7
20260507080017 16 0.0 3.2 0.00 0.38 0.03 82 1013.7
20260507075517 16 0.0 3.2 0.00 0.38 0.03 82 1013.7
20260507075016 16 135 1.6 4.8 0.00 0.38 0.03 82 1013.8
20260507074516 16 135 3.2 4.8 0.00 0.38 0.03 83 1013.8
20260507074016 16 0.0 3.2 0.00 0.38 0.03 83 1013.7
20260507073517 16 0.0 0.0 0.00 0.38 0.03 83 1013.6
20260507073017 16 0.0 0.0 0.00 0.38 0.03 83 1013.5
20260507072516 16 0.0 0.0 0.03 0.38 0.03 83 1013.5
20260507072016 16 180 1.6 4.8 0.03 0.38 0.03 83 1013.5
20260507071516 16 180 1.6 3.2 0.03 0.38 0.03 83 1013.5
20260507071016 15 180 1.6 3.2 0.03 0.38 0.03 83 1013.4
20260507070516 15 23 1.6 4.8 0.03 0.38 0.03 83 1013.5
20260507070016 15 23 1.6 4.8 0.03 0.38 0.03 83 1013.4
20260507065516 15 23 1.6 4.8 0.03 0.38 0.03 83 1013.3
20260507065016 15 0 3.2 6.4 0.03 0.38 0.03 83 1013.3
20260507064516 15 23 1.6 6.4 0.03 0.38 0.03 83 1013.2
20260507064016 15 23 3.2 8.0 0.03 0.38 0.03 83 1013.2
20260507063516 15 338 1.6 6.4 0.03 0.38 0.03 83 1013.3
20260507063016 15 338 3.2 6.4 0.03 0.38 0.03 83 1013.3
20260507062516 15 0 1.6 4.8 0.00 0.36 0.00 82 1013.3
20260507062016 15 338 3.2 6.4 0.00 0.36 0.00 82 1013.3
20260507061516 15 315 3.2 4.8 0.00 0.36 0.00 82 1013.3
20260507061017 15 315 1.6 4.8 0.00 0.36 0.00 82 1013.2
20260507060516 15 203 1.6 3.2 0.00 0.36 0.00 82 1013.2
20260507060016 15 203 1.6 1.6 0.00 0.36 0.00 82 1013.2
20260507055517 15 0.0 1.6 0.00 0.36 0.00 82 1013.2
20260507055016 15 0.0 1.6 0.00 0.36 0.00 82 1013.1
20260507054516 15 0.0 0.0 0.00 0.36 0.00 82 1013.0
20260507054016 15 0.0 1.6 0.00 0.36 0.00 82 1012.9
20260507053516 15 203 1.6 3.2 0.00 0.36 0.00 82 1012.9
20260507053016 15 0.0 1.6 0.00 0.36 0.00 82 1012.9
20260507052516 15 0.0 1.6 0.00 0.36 0.00 82 1012.9
20260507052016 15 0.0 1.6 0.00 0.36 0.00 82 1012.9
20260507051517 15 203 1.6 4.8 0.00 0.36 0.00 82 1012.8
20260507051016 15 203 3.2 6.4 0.00 0.36 0.00 82 1012.8
20260507050516 15 180 1.6 4.8 0.00 0.36 0.00 82 1012.8
20260507050016 15 180 3.2 6.4 0.00 0.36 0.00 82 1012.7
20260507045516 15 158 3.2 6.4 0.00 0.36 0.00 82 1012.6
20260507045016 15 203 3.2 6.4 0.00 0.36 0.00 82 1012.6
20260507044516 15 203 3.2 8.0 0.00 0.36 0.00 82 1012.5
20260507044016 15 203 3.2 6.4 0.00 0.36 0.00 82 1012.5
20260507043516 15 203 4.8 8.0 0.00 0.36 0.00 82 1012.3
20260507043016 15 203 4.8 8.0 0.00 0.36 0.00 82 1012.2
20260507042516 15 203 4.8 6.4 0.00 0.36 0.00 82 1012.2
20260507042016 15 203 3.2 6.4 0.00 0.36 0.00 82 1012.1
20260507041516 15 180 3.2 6.4 0.00 0.36 0.00 82 1012.1
20260507041016 15 180 3.2 6.4 0.00 0.36 0.00 82 1012.0
20260507040516 15 180 1.6 6.4 0.00 0.36 0.00 82 1012.0
20260507040016 15 158 1.6 8.0 0.00 0.36 0.00 82 1012.0
20260507035516 15 158 3.2 11.3 0.00 0.36 0.00 82 1012.0
20260507035016 15 180 3.2 11.3 0.00 0.36 0.00 82 1011.9
20260507034516 15 180 4.8 12.9 0.00 0.36 0.00 82 1011.9
20260507034016 15 180 4.8 11.3 0.00 0.36 0.00 81 1011.8
20260507033516 15 158 4.8 11.3 0.00 0.36 0.00 81 1011.8
20260507033016 15 180 4.8 11.3 0.00 0.36 0.00 81 1011.8
20260507032515 15 158 3.2 8.0 0.00 0.36 0.00 81 1011.7
20260507032016 15 158 3.2 8.0 0.00 0.36 0.00 80 1011.7
20260507031516 15 180 3.2 9.7 0.00 0.36 0.00 80 1011.6
20260507031016 15 158 3.2 8.0 0.00 0.36 0.00 80 1011.6
20260507030515 15 180 3.2 8.0 0.00 0.36 0.00 80 1011.6
20260507030016 15 158 1.6 6.4 0.00 0.36 0.00 80 1011.6
20260507025516 15 158 3.2 8.0 0.00 0.36 0.00 80 1011.5
20260507025015 15 158 3.2 8.0 0.00 0.36 0.00 80 1011.6
20260507024517 15 180 3.2 6.4 0.00 0.36 0.00 79 1011.6
20260507024016 15 180 3.2 6.4 0.00 0.36 0.00 79 1011.6
20260507023516 15 158 3.2 8.0 0.00 0.36 0.00 79 1011.5
20260507023015 15 158 1.6 4.8 0.00 0.36 0.00 78 1011.4
20260507022516 15 158 3.2 6.4 0.00 0.36 0.00 78 1011.3
20260507022016 15 158 3.2 6.4 0.00 0.36 0.00 78 1011.3
20260507021516 15 158 3.2 4.8 0.00 0.36 0.00 78 1011.4
20260507021016 15 180 3.2 6.4 0.00 0.36 0.00 78 1011.4
20260507020516 15 0.0 3.2 0.00 0.36 0.00 78 1011.4
20260507020015 15 180 1.6 4.8 0.00 0.36 0.00 78 1011.5
20260507015515 15 180 1.6 4.8 0.00 0.36 0.00 78 1011.5
20260507015015 15 180 3.2 8.0 0.00 0.36 0.00 78 1011.5
20260507014516 15 158 3.2 8.0 0.00 0.36 0.00 78 1011.5
20260507014016 15 158 3.2 6.4 0.00 0.36 0.00 78 1011.4
20260507013515 15 180 3.2 8.0 0.00 0.36 0.00 78 1011.3
20260507013016 15 180 4.8 11.3 0.00 0.36 0.00 78 1011.4
20260507012515 15 180 6.4 12.9 0.00 0.36 0.00 78 1011.3
20260507012015 15 180 3.2 6.4 0.00 0.36 0.00 77 1011.4
20260507011516 15 180 3.2 6.4 0.00 0.36 0.00 77 1011.3
20260507011015 15 180 3.2 9.7 0.00 0.36 0.00 77 1011.3
20260507010517 15 180 3.2 8.0 0.00 0.36 0.00 77 1011.2
20260507010016 15 180 4.8 8.0 0.00 0.36 0.00 77 1011.3
20260507005515 15 180 3.2 8.0 0.00 0.36 0.00 77 1011.3
20260507005016 15 180 3.2 8.0 0.00 0.36 0.00 77 1011.3
20260507004515 15 180 4.8 8.0 0.00 0.36 0.00 77 1011.3
20260507004015 15 180 3.2 9.7 0.00 0.36 0.00 77 1011.3
20260507003515 15 180 3.2 8.0 0.00 0.36 0.00 77 1011.2
20260507003015 15 180 3.2 8.0 0.00 0.36 0.00 77 1011.1
20260507002515 15 180 3.2 9.7 0.00 0.36 0.00 77 1011.1
20260507002016 15 158 4.8 11.3 0.00 0.36 0.00 77 1011.2
20260507001515 15 158 6.4 12.9 0.00 0.36 0.00 77 1011.2
20260507001015 15 158 6.4 11.3 0.00 0.36 0.00 77 1011.3
20260507000515 15 180 3.2 6.4 0.00 0.36 0.00 77 1011.4
20260507000016 15 180 3.2 8.0 0.00 0.36 0.00 77 1011.3
20260506235515 15 158 3.2 6.4 0.00 0.36 0.00 77 1011.4
20260506235016 15 180 3.2 6.4 0.00 0.36 0.00 77 1011.3
20260506234515 15 203 3.2 8.0 0.00 0.36 0.00 77 1011.3
20260506234016 15 203 4.8 9.7 0.00 0.36 0.00 78 1011.3
20260506233515 15 203 4.8 9.7 0.00 0.36 0.00 78 1011.3
20260506233015 15 203 6.4 12.9 0.00 0.36 0.00 78 1011.3
20260506232515 15 203 4.8 9.7 0.00 0.36 0.00 77 1011.3
20260506232015 15 180 4.8 12.9 0.00 0.36 0.00 77 1011.3
20260506231515 15 180 6.4 12.9 0.00 0.36 0.00 77 1011.3
20260506231015 15 203 6.4 9.7 0.00 0.36 0.00 77 1011.2
20260506230515 15 203 4.8 9.7 0.00 0.36 0.00 77 1011.2
20260506230015 15 203 3.2 6.4 0.00 0.36 0.00 77 1011.2
20260506225516 15 203 4.8 8.0 0.00 0.36 0.00 77 1011.2
20260506225015 15 225 4.8 8.0 0.00 0.36 0.00 77 1011.2
20260506224517 15 225 3.2 4.8 0.00 0.36 0.00 77 1011.2
20260506224015 15 248 1.6 4.8 0.00 0.36 0.00 77 1011.2
20260506223517 15 248 1.6 4.8 0.00 0.36 0.00 78 1011.3
20260506223017 15 248 3.2 6.4 0.00 0.36 0.00 78 1011.3
20260506222517 15 225 1.6 4.8 0.00 0.36 0.00 78 1011.3
20260506222015 15 248 3.2 8.0 0.03 0.36 0.00 78 1011.3
20260506221517 15 248 1.6 6.4 0.03 0.36 0.00 78 1011.3
20260506221017 15 248 3.2 6.4 0.03 0.36 0.00 78 1011.3
20260506220517 15 248 1.6 4.8 0.03 0.36 0.00 78 1011.2
20260506220017 15 225 1.6 4.8 0.03 0.36 0.36 79 1011.4
20260506215517 15 225 3.2 8.0 0.05 0.36 0.36 79 1011.3
20260506215017 15 270 3.2 6.4 0.05 0.36 0.36 79 1011.3
20260506214516 15 270 3.2 9.7 0.05 0.36 0.36 79 1011.3
20260506214016 15 248 1.6 4.8 0.05 0.36 0.36 79 1011.3
20260506213517 15 248 3.2 6.4 0.05 0.36 0.36 79 1011.3
20260506213017 15 248 1.6 4.8 0.05 0.36 0.36 80 1011.3
20260506212516 16 248 1.6 4.8 0.05 0.36 0.36 80 1011.1
20260506212016 16 248 3.2 8.0 0.05 0.33 0.33 80 1011.1
20260506211516 16 0.0 4.8 0.05 0.33 0.33 80 1011.1
20260506211016 16 0 1.6 3.2 0.05 0.33 0.33 80 1011.0
20260506210516 16 248 1.6 4.8 0.08 0.33 0.33 80 1011.0
20260506210016 16 248 4.8 9.7 0.08 0.33 0.33 80 1011.1
20260506205516 16 0 3.2 8.0 0.05 0.33 0.33 80 1011.0
20260506205016 16 0 3.2 8.0 0.05 0.33 0.33 80 1010.9
20260506204516 16 0 4.8 8.0 0.08 0.33 0.33 80 1010.8
20260506204016 16 0 3.2 8.0 0.08 0.33 0.33 81 1010.8
20260506203516 16 338 4.8 9.7 0.08 0.30 0.30 81 1010.8
20260506203016 16 338 4.8 9.7 0.10 0.30 0.30 81 1010.8
20260506202516 16 0 4.8 11.3 0.15 0.30 0.30 81 1010.8
20260506202016 16 0 3.2 9.7 0.15 0.28 0.28 81 1010.9
20260506201516 16 23 4.8 11.3 0.15 0.28 0.28 81 1010.8
20260506201017 16 0 4.8 8.0 0.18 0.28 0.28 81 1011.1
20260506200516 16 0 6.4 14.5 0.18 0.25 0.25 81 1011.0
20260506200016 16 338 3.2 11.3 0.18 0.25 0.25 81 1011.0
20260506195516 16 0 6.4 14.5 0.20 0.25 0.25 81 1011.0
20260506195016 17 338 6.4 11.3 0.20 0.25 0.25 81 1011.2
20260506194516 17 315 4.8 11.3 0.18 0.23 0.23 81 1011.4
20260506194016 17 338 3.2 9.7 0.18 0.23 0.23 81 1011.4
20260506193516 17 338 3.2 9.7 0.18 0.23 0.23 81 1011.3
20260506193016 17 315 1.6 4.8 0.15 0.20 0.20 81 1011.5
20260506192516 17 315 3.2 6.4 0.13 0.15 0.15 81 1011.4
20260506192016 17 315 4.8 8.0 0.10 0.15 0.15 82 1011.2
20260506191516 17 270 6.4 12.9 0.08 0.13 0.13 81 1011.2
20260506191016 17 293 9.7 17.7 0.08 0.10 0.10 81 1011.0
20260506190516 17 293 8.0 17.7 0.05 0.08 0.08 81 1010.9
20260506190016 17 293 6.4 12.9 0.05 0.08 0.08 81 1010.8
20260506185516 17 293 8.0 16.1 0.05 0.05 0.05 81 1010.7
20260506185016 18 270 4.8 9.7 0.05 0.05 0.05 81 1010.6
20260506184516 18 248 4.8 9.7 0.05 0.05 0.05 81 1010.4
20260506184016 18 270 4.8 8.0 0.05 0.05 0.05 80 1010.3
20260506183516 18 270 4.8 9.7 0.05 0.05 0.05 80 1010.3
20260506183016 18 270 4.8 9.7 0.05 0.05 0.05 79 1010.1
20260506182516 18 248 4.8 8.0 0.05 0.05 0.05 78 1010.0
20260506182016 19 248 3.2 6.4 0.05 0.05 0.05 78 1009.8
20260506181516 19 270 4.8 9.7 0.05 0.05 0.05 77 1009.8
20260506181016 20 270 6.4 9.7 0.03 0.03 0.03 76 1009.7
20260506180516 20 270 6.4 12.9 0.03 0.03 0.03 75 1009.8
20260506180016 20 248 6.4 12.9 0.03 0.03 0.03 73 1009.7
20260506175516 21 203 4.8 14.5 0.03 0.03 0.03 71 1009.8
20260506175016 21 203 12.9 20.9 0.00 0.00 0.00 67 1009.8
20260506174516 22 225 14.5 24.1 0.00 0.00 0.00 63 1009.8
20260506174016 22 225 11.3 25.7 0.00 0.00 0.00 59 1009.5
20260506173516 23 315 6.4 14.5 0.00 0.00 0.00 57 1008.6
20260506173016 23 338 3.2 6.4 0.00 0.00 0.00 56 1008.5
20260506172516 24 0 6.4 12.9 0.00 0.00 0.00 55 1008.3
20260506172016 24 0 6.4 12.9 0.00 0.00 0.00 53 1008.3
20260506171516 25 0 8.0 16.1 0.00 0.00 0.00 51 1008.4
20260506171016 25 315 3.2 16.1 0.00 0.00 0.00 48 1008.3
20260506170516 25 293 3.2 6.4 0.00 0.00 0.00 47 1008.3
20260506170016 26 293 4.8 8.0 0.00 0.00 0.00 46 1008.3
20260506165516 26 180 1.6 3.2 0.00 0.00 0.00 44 1008.2
20260506165016 26 158 1.6 6.4 0.00 0.00 0.00 43 1008.1
20260506164516 26 180 3.2 6.4 0.00 0.00 0.00 43 1008.2
20260506164016 26 158 4.8 11.3 0.00 0.00 0.00 43 1008.1
20260506163515 26 180 4.8 11.3 0.00 0.00 0.00 42 1008.1
20260506163016 26 158 4.8 12.9 0.00 0.00 0.00 42 1008.1
20260506162515 26 135 8.0 12.9 0.00 0.00 0.00 42 1008.1
20260506162016 26 135 8.0 12.9 0.00 0.00 0.00 41 1008.0
20260506161515 27 135 8.0 14.5 0.00 0.00 0.00 40 1008.1
20260506161015 27 135 8.0 14.5 0.00 0.00 0.00 40 1008.1
20260506160516 27 113 8.0 14.5 0.00 0.00 0.00 41 1008.1
20260506160016 27 113 9.7 14.5 0.00 0.00 0.00 40 1008.3
20260506155516 27 135 6.4 16.1 0.00 0.00 0.00 39 1008.3
20260506155016 27 135 8.0 12.9 0.00 0.00 0.00 39 1008.4
20260506154515 28 113 4.8 11.3 0.00 0.00 0.00 39 1008.4
20260506154015 28 158 6.4 12.9 0.00 0.00 0.00 38 1008.5
20260506153515 28 135 6.4 14.5 0.00 0.00 0.00 38 1008.4
20260506153015 28 113 9.7 16.1 0.00 0.00 0.00 38 1008.5
20260506152516 28 135 9.7 17.7 0.00 0.00 0.00 38 1008.4
20260506152015 28 135 9.7 16.1 0.00 0.00 0.00 38 1008.5
20260506151515 28 135 9.7 14.5 0.00 0.00 0.00 38 1008.6
20260506151015 28 135 8.0 14.5 0.00 0.00 0.00 38 1008.6
20260506150516 28 135 11.3 17.7 0.00 0.00 0.00 37 1008.7
20260506150016 28 135 8.0 16.1 0.00 0.00 0.00 36 1008.8
20260506145515 28 135 3.2 12.9 0.00 0.00 0.00 36 1008.7
20260506145016 29 135 11.3 19.3 0.00 0.00 0.00 35 1008.8
20260506144515 29 135 9.7 17.7 0.00 0.00 0.00 35 1008.8
20260506144015 29 135 6.4 16.1 0.00 0.00 0.00 35 1008.8
20260506143515 29 158 4.8 12.9 0.00 0.00 0.00 36 1008.9
20260506143015 29 113 4.8 12.9 0.00 0.00 0.00 35 1008.9
20260506142515 28 135 6.4 11.3 0.00 0.00 0.00 36 1009.0
20260506142015 28 135 9.7 20.9 0.00 0.00 0.00 36 1009.0
20260506141515 29 135 8.0 14.5 0.00 0.00 0.00 35 1009.0
20260506141015 29 113 8.0 19.3 0.00 0.00 0.00 34 1009.0
20260506140515 30 180 4.8 14.5 0.00 0.00 0.00 34 1009.1
20260506140016 29 203 4.8 12.9 0.00 0.00 0.00 34 1009.1
20260506135515 29 135 6.4 12.9 0.00 0.00 0.00 35 1009.1
20260506135016 29 158 8.0 16.1 0.00 0.00 0.00 35 1009.1
20260506134516 29 135 8.0 19.3 0.00 0.00 0.00 35 1009.1
20260506134015 29 135 9.7 19.3 0.00 0.00 0.00 36 1009.3
20260506133515 29 180 4.8 14.5 0.00 0.00 0.00 36 1009.3
20260506133015 29 135 8.0 14.5 0.00 0.00 0.00 36 1009.4
20260506132515 28 90 3.2 9.7 0.00 0.00 0.00 37 1009.4
20260506132015 28 68 6.4 14.5 0.00 0.00 0.00 37 1009.4
20260506131515 28 225 4.8 17.7 0.00 0.00 0.00 36 1009.6
20260506131015 28 225 4.8 11.3 0.00 0.00 0.00 36 1009.6
20260506130515 28 158 9.7 17.7 0.00 0.00 0.00 37 1009.7
20260506130015 28 158 6.4 14.5 0.00 0.00 0.00 37 1009.7
20260506125515 28 158 3.2 12.9 0.00 0.00 0.00 37 1009.7
20260506125015 28 135 4.8 11.3 0.00 0.00 0.00 38 1009.8
20260506124515 28 180 4.8 9.7 0.00 0.00 0.00 37 1009.8
20260506124015 28 158 8.0 16.1 0.00 0.00 0.00 38 1009.9
20260506123515 27 135 9.7 22.5 0.00 0.00 0.00 38 1009.9
20260506123015 27 135 8.0 19.3 0.00 0.00 0.00 39 1009.9
20260506122515 27 203 6.4 12.9 0.00 0.00 0.00 39 1010.1
20260506122015 27 203 8.0 14.5 0.00 0.00 0.00 40 1010.1
20260506121515 27 203 11.3 17.7 0.00 0.00 0.00 39 1010.2
20260506121017 27 180 8.0 17.7 0.00 0.00 0.00 40 1010.2
20260506120520 27 203 8.0 14.5 0.00 0.00 0.00 38 1010.2
20260506120017 27 90 9.7 20.9 0.00 0.00 0.00 39 1010.3
20260506115517 27 135 6.4 16.1 0.00 0.00 0.00 40 1010.3
20260506115015 27 225 12.9 22.5 0.00 0.00 0.00 39 1010.4
20260506114517 27 203 3.2 8.0 0.00 0.00 0.00 40 1010.4
20260506114018 27 248 8.0 16.1 0.00 0.00 0.00 40 1010.4
20260506113517 27 180 6.4 14.5 0.00 0.00 0.00 40 1010.5
20260506113017 27 135 11.3 17.7 0.00 0.00 0.00 40 1010.6
20260506112517 27 203 8.0 20.9 0.00 0.00 0.00 40 1010.7
20260506112020 27 158 11.3 20.9 0.00 0.00 0.00 41 1010.9
20260506111517 27 135 9.7 20.9 0.00 0.00 0.00 41 1010.8
20260506111017 26 135 8.0 20.9 0.00 0.00 0.00 42 1010.9
20260506110517 26 158 8.0 16.1 0.00 0.00 0.00 42 1011.0
20260506110017 26 135 9.7 19.3 0.00 0.00 0.00 43 1011.1
20260506105517 26 225 8.0 17.7 0.00 0.00 0.00 42 1011.0
20260506105017 26 158 9.7 17.7 0.00 0.00 0.00 42 1011.1
20260506104517 26 203 12.9 25.7 0.00 0.00 0.00 43 1011.2
20260506104017 26 225 9.7 16.1 0.00 0.00 0.00 41 1011.3
20260506103517 26 158 11.3 22.5 0.00 0.00 0.00 42 1011.3
20260506103018 26 203 6.4 16.1 0.00 0.00 0.00 41 1011.3
20260506102517 26 135 9.7 17.7 0.00 0.00 0.00 42 1011.4
20260506102017 25 158 6.4 17.7 0.00 0.00 0.00 42 1011.3
20260506101517 25 158 6.4 16.1 0.00 0.00 0.00 43 1011.5
20260506101018 25 180 9.7 17.7 0.00 0.00 0.00 42 1011.5
20260506100520 25 135 6.4 17.7 0.00 0.00 0.00 45 1011.5
20260506100017 25 248 4.8 11.3 0.00 0.00 0.00 45 1011.5
20260506095517 24 203 4.8 12.9 0.00 0.00 0.00 46 1011.5
20260506095017 24 180 3.2 9.7 0.00 0.00 0.00 46 1011.6
20260506094517 24 158 8.0 14.5 0.00 0.00 0.00 47 1011.7
20260506094017 23 225 8.0 14.5 0.00 0.00 0.00 47 1011.7
20260506093517 23 203 8.0 16.1 0.00 0.00 0.00 46 1011.7
20260506093020 23 203 6.4 14.5 0.00 0.00 0.00 46 1011.7
20260506092516 23 225 6.4 14.5 0.00 0.00 0.00 46 1011.9
20260506092017 23 225 8.0 14.5 0.00 0.00 0.00 45 1011.9
20260506091516 23 158 6.4 14.5 0.00 0.00 0.00 46 1011.8
20260506091020 23 180 4.8 12.9 0.00 0.00 0.00 48 1011.8
20260506090520 23 225 6.4 12.9 0.00 0.00 0.00 49 1012.0
20260506090016 23 203 4.8 17.7 0.00 0.00 0.00 49 1011.9
20260506085517 23 225 8.0 17.7 0.00 0.00 0.00 50 1012.0
20260506085018 22 203 6.4 14.5 0.00 0.00 0.00 50 1012.1
20260506084516 22 180 4.8 12.9 0.00 0.00 0.00 52 1012.0
20260506084016 22 158 3.2 6.4 0.00 0.00 0.00 53 1012.1
20260506083517 21 180 4.8 14.5 0.00 0.00 0.00 53 1012.1
20260506083017 21 158 3.2 11.3 0.00 0.00 0.00 55 1012.1
20260506082516 21 203 4.8 9.7 0.00 0.00 0.00 54 1012.1
20260506082019 21 203 4.8 9.7 0.00 0.00 0.00 54 1012.1
20260506081519 21 225 4.8 12.9 0.00 0.00 0.00 53 1012.1
20260506081017 21 225 4.8 9.7 0.00 0.00 0.00 54 1012.0